Probability
0 0 0 0 0 0 0 0 0 0 0 0 0 0 0 0 0 0 0 0 0 0 0 0 0 0 0 0 0 0 0 0 0 0 0 0 0 0 0 0 0 0 0
0 0 0 0 0 0 0 0 0 0 0 0 0 0 0 0 0 0 0 0 0 0 0 0 0 0 0 0 0 0 0 0 0 0 0 0 0 0 0 0 0 0 0
0 0 0 0 0 0 0 0 0 0 0 0 0 0 0 0 0 0 0 0 0 0 0 0 0 0 0 0 0 0 0 0 0 0 0 0 0 0 0 0 0 0 0
0 0 0 0 0 0 0 0 0 0 0 0 0 0 0 0 0 0 0 0 0 0 0 0 0 0 0 0 0 0 0 0 0 0 0 0 0 0 0 0 0 0 0
0 0 0 0 0 0 0 0 0 0 0 0 0 0 0 0 0 0 0 0 0 0 0 0 0 0 0 0 0 0 0 0 0 0 0 0 0 0 0 0 0 0 0
0 0 0 0 0 0 0 0 0 0 0 0 0 0 0 0 0 0 0 0 0 0 0 0 0 0 0 0 0 0 0 0 0 0 0 0 0 0 0 0 0 0 0
0 0 0 0 0 0 0 0 0 0 0 0 0 0 0 0 0 0 0 0 0 0 0 0 0 0 0 0 0 0 0 0 0 0 0 0 0 0 0 0 0 0 0
0 0 0 0 0 0 0 0 0 0 0 0 0 0 0 0 0 0 0 0 0 0 0 0 0 0 0 0 0 0 0 0 0 0 0 0 0 0 0 0 0 0 0
0 0 0 0 0 0 0 0 0 0 0 0 0 0 0 0 0 0 0 0 0 0 0 0 0 0 0 0 0 0 0 0 0 0 0 0 0 0 0 0 0 0 0
0 0 0 0 0 0 0 0 0 0 0 0 0 0 0 0 0 0 0 0 0 0 0 0 0 0 0 0 0 0 0 0 0 0 0 0 0 0 0 0 0 0 0
0 0 0 0 0 0 0 0 0 0 0 0 0 0 0 0 0 0 0 0 0 0 0 0 0 0 0 0 0 0 0 0 0 0 0 0 0 0 0 0 0 0 0
0 0 0 0 0 0 0 0 0 0 0 0 0 0 0 0 0 0 0 0 0 0 0 0 0 0 0 0 0 0 0 0 0 0 0 0 0 0 0 0 0 0 0
0 0 0 0 0 0 0 0 0 0 0 0 0 0 0 0 0 0 0 0 0 0 0 0 0 0 0 0 0 0 0 0 0 0 0 0 0 0 0 0 0 0 0
0 0 0 0 0 0 0 0 0 0 0 0 0 0 0 0 0 0 0 0 0 0 0 0 0 0 0 0 0 0 0 0 0 0 0 0 0 0 0 0 0 0 0
0 0 0 0 0 0 0 0 0 0 0 0 0 0 0 0 0 0 0 0 0 0 0 0 0 0 0 0 0 0 0 0 0 0 0 0 0 0 0 0 0 0 0
0 0 0 0 0 0 0 0 0 0 0 0 0 0 0 0 0 0 0 0 0 0 0 0 0 0 0 0 0 0 0 0 0 0 0 0 0 0 0 0 0 0 0
0 0 0 0 0 0 0 0 0 0 0 0 0 0 0 0 0 0 0 0 0 0 0 0 0 0 0 0 0 0 0 0 0 0 0 0 0 0 0 0 0 0 0
0 0 0 0 0 0 0 0 0 0 0 0 0 0 0 0 0 0 0 0 0 0 0 0 0 0 0 0 0 0 0 0 0 0 0 0 0 0 0 0 0 0 0
0 0 0 0 0 0 0 0 0 0 0 0 0 0 0 0 0 0 0 0 0 0 0 0 0 0 0 0 0 0 0 0 0 0 0 0 0 0 0 0 0 0 0
0 0 0 0 0 0 0 0 0 0 0 0 0 0 0 0 0 0 0 0 0 0 0 0 0 0 0 0 0 0 0 0 0 0 0 0 0 0 0 0 0 0 0
0 0 0 0 0 0 0 0 0 0 0 0 0 0 0 0 0 0 0 0 0 0 0 0 0 0 0 0 0 0 0 0 0 0 0 0 0 0 0 0 0 0 0
0 0 0 0 0 0 0 0 0 0 0 0 0 0 0 0 0 0 0 0 0 0 0 0 0 0 0 0 0 0 0 0 0 0 0 0 0 0 0 0 0 0 0
0 0 0 0 0 0 0 0 0 0 0 0 0 0 0 0 0 0 0 0 0 0 0 0 0 0 0 0 0 0 0 0 0 0 0 0 0 0 0 0 0 0 0
0 0 0 0 0 0 0 0 0 0 0 0 0 0 0 0 0 0 0 0 0 0 0 0 0 0 0 0 0 0 0 0 0 0 0 0 0 0 0 0 0 0 0
0 0 0 0 0 0 0 0 0 0 0 0 0 0 0 0 0 0 0 0 0 0 0 0 0 0 0 0 0 0 0 0 0 0 0 0 0 0 0 0 0 0 0
0 0 0 0 0 0 0 0 0 0 0 0 0 0 0 0 0 0 0 0 0 0 0 0 0 0 0 0 0 0 0 0 0 0 0 0 0 0 0 0 0 0 0
Wind_Speed
9 9 8 7 9 11 12 12 13 13 13 14 14 14 14 14 14 14 14 15 15 16 16 18 19 19 20 20 20 20 20 20 20 21 22 23 23 23 23 21 18 17 23
11 11 9 8 10 11 12 12 12 13 13 14 14 14 14 14 14 14 14 15 15 15 16 18 19 19 20 20 20 20 20 19 18 16 16 21 23 23 23 23 22 17 23
12 11 11 9 10 12 12 12 12 13 13 14 14 14 15 15 15 15 15 15 15 15 17 19 19 19 19 19 20 20 20 19 17 13 14 16 19 23 23 23 23 23 23
12 11 11 11 12 13 12 12 12 12 13 14 14 15 15 15 15 15 15 15 15 16 18 19 19 19 19 19 19 20 19 18 15 12 14 15 16 21 23 23 23 23 23
11 11 11 11 12 13 13 13 12 12 13 13 14 15 15 15 16 16 16 15 16 17 19 19 19 19 19 19 19 19 18 17 13 15 15 15 15 20 22 23 23 23 23
11 10 12 11 12 13 13 13 13 13 13 13 14 15 15 15 16 16 16 16 16 18 19 19 19 19 19 19 19 19 17 14 13 15 15 15 15 20 22 22 22 22 22
11 10 12 10 11 12 12 13 13 13 13 13 14 14 15 15 16 16 16 17 17 18 19 19 20 19 19 19 19 18 17 14 14 15 15 14 16 21 22 22 22 22 23
11 10 10 9 9 10 11 11 12 12 13 13 13 14 15 15 16 16 17 17 18 19 19 20 20 20 20 20 20 19 15 11 14 15 15 15 17 20 21 22 22 22 23
10 10 9 10 10 9 9 10 11 11 11 12 13 13 13 14 15 15 16 17 18 19 19 20 20 20 20 20 20 19 15 12 14 12 14 12 17 21 22 22 22 23 24
9 9 9 9 9 10 10 10 10 11 11 11 12 12 12 13 13 12 14 16 18 19 19 20 20 20 20 19 18 16 12 11 14 14 11 12 19 21 22 23 23 24 24
9 9 9 9 8 8 9 10 10 11 11 12 11 12 11 10 11 10 14 15 18 19 19 20 20 20 19 18 17 14 10 10 13 11 11 15 20 22 23 23 24 25 25
13 11 8 9 9 8 7 8 8 9 10 10 10 11 8 8 8 11 13 14 16 17 18 18 17 14 10 9 10 9 8 11 11 10 11 18 21 22 24 24 24 25 25
14 11 9 8 8 8 6 6 5 5 7 9 11 11 8 7 7 8 7 8 10 11 11 12 10 7 8 7 7 8 9 9 8 9 12 18 21 22 23 23 24 24 24
13 13 10 9 7 7 6 6 6 6 6 6 9 11 8 6 7 7 5 6 6 5 7 7 7 10 10 10 10 10 10 8 8 8 12 17 20 21 22 23 23 23 23
14 13 11 9 9 8 7 6 6 6 7 7 8 9 10 8 8 7 6 5 6 6 7 8 9 10 10 10 10 10 11 11 10 9 9 18 19 20 21 21 22 22 22
15 14 12 11 10 9 8 8 7 7 6 7 7 10 11 8 8 8 7 7 6 6 7 8 10 9 9 8 10 10 10 9 9 9 9 13 19 20 20 21 21 21 21
15 14 12 11 10 10 10 9 7 7 6 7 7 9 11 10 10 9 8 7 7 8 9 9 11 9 9 9 10 10 8 8 8 9 8 7 10 17 19 20 20 20 20
14 14 13 9 11 12 10 9 7 7 7 6 6 7 10 11 12 10 8 8 9 8 8 9 9 9 9 8 8 7 7 7 9 8 7 7 6 7 14 19 19 19 19
15 15 14 13 13 12 10 8 7 6 7 6 6 6 9 11 12 10 9 9 11 9 8 9 9 9 10 9 8 7 6 6 7 7 8 8 7 7 7 12 17 18 18
15 15 14 14 13 11 9 7 5 6 6 6 6 6 9 9 11 10 9 12 11 9 9 9 11 10 10 10 9 8 6 6 5 6 6 6 6 7 7 7 7 10 16
15 16 16 16 15 12 9 8 7 7 6 6 5 7 9 10 11 11 10 12 11 11 12 13 12 14 10 10 9 7 6 6 5 4 4 5 6 6 7 7 6 5 6
18 18 18 18 17 16 12 9 6 6 5 5 4 6 8 9 11 10 13 12 12 11 13 14 15 10 9 9 7 7 6 5 4 3 3 4 5 5 5 6 6 6 5
17 19 16 18 18 17 14 9 6 4 4 5 6 6 7 8 10 11 13 13 13 13 14 17 16 13 12 9 6 6 7 7 6 5 4 4 4 4 4 4 5 5 5
16 15 17 17 17 17 16 14 15 12 11 12 8 7 7 7 9 10 12 13 13 12 14 16 15 11 14 11 6 3 1 5 7 7 5 5 5 4 4 3 3 4 4
13 13 14 16 17 17 17 17 16 14 11 8 8 9 8 7 8 9 11 12 13 11 14 15 14 12 11 11 8 6 4 4 4 5 7 7 6 5 4 4 3 2 2
10 12 13 16 17 17 18 18 18 17 14 12 12 11 9 6 6 9 10 10 12 10 13 14 14 14 11 11 8 7 6 6 6 5 5 8 7 5 5 4 4 2 1
Wind_Direction
170 168 161 161 137 123 114 110 104 98 94 90 86 83 81 79 78 77 78 79 79 80 82 83 81 78 74 70 68 67 65 63 62 64 65 61 58 56 53 48 48 49 48
157 160 155 160 140 128 121 115 108 102 97 91 87 84 82 81 80 80 80 81 82 84 86 86 82 79 75 72 70 68 66 64 63 62 68 67 61 58 56 54 52 52 50
154 156 158 156 142 134 127 120 113 106 99 93 89 86 84 82 81 81 81 82 84 87 88 86 83 80 77 74 72 69 67 64 62 56 64 67 63 59 59 57 56 55 53
154 157 157 147 143 138 132 126 119 112 105 98 93 88 85 84 83 83 84 84 86 88 88 86 84 81 78 76 74 71 68 65 58 59 65 65 64 62 61 60 58 57 56
155 157 147 148 144 142 139 133 126 120 112 104 97 92 89 87 85 85 86 86 87 88 88 86 84 82 80 78 76 74 71 68 62 67 68 66 66 64 63 62 61 59 57
156 156 150 152 148 148 145 140 135 128 119 110 102 96 93 90 89 88 88 89 88 88 87 86 85 83 82 80 77 74 71 65 69 68 67 65 66 66 66 64 63 62 60
157 157 155 153 151 151 151 147 142 134 126 117 109 103 99 96 94 93 93 92 91 90 89 88 86 84 83 81 78 74 70 62 69 69 68 66 66 67 67 66 65 63 62
159 158 156 150 151 151 153 152 147 141 134 126 118 110 105 101 99 98 97 96 95 94 92 90 89 87 85 82 78 73 63 57 72 70 69 67 65 67 66 66 66 65 63
163 162 163 164 161 155 153 153 152 146 141 134 125 114 105 102 101 99 99 99 99 97 95 93 91 89 86 82 78 72 61 56 72 69 67 65 67 68 67 66 66 65 63
170 170 169 170 171 170 167 159 157 154 148 139 128 117 109 105 102 101 104 103 103 101 99 96 94 90 86 82 77 69 55 64 68 67 66 67 69 70 68 67 66 64 63
179 178 177 175 176 176 175 167 168 162 154 146 138 133 135 128 119 112 105 108 108 105 103 100 97 94 90 81 73 65 61 69 70 65 62 65 70 71 70 69 66 65 63
188 185 185 185 181 181 177 178 181 175 170 169 159 156 149 134 120 115 101 102 106 107 105 103 101 98 94 89 76 67 72 73 71 67 59 63 70 71 71 69 67 65 63
193 187 191 190 187 187 184 186 183 181 180 177 170 165 152 137 131 128 124 116 117 118 112 111 103 91 87 83 79 76 75 73 72 69 56 60 69 72 72 70 68 66 64
198 194 191 191 192 193 194 193 189 185 184 181 177 171 162 154 153 148 143 140 136 126 123 113 103 98 92 87 83 81 77 76 76 74 56 55 66 70 72 72 71 68 66
204 200 195 195 197 194 196 199 198 194 193 187 180 179 176 166 161 155 145 144 138 133 127 120 113 107 100 93 88 86 83 79 80 80 68 56 63 68 70 71 71 69 66
208 204 197 200 202 199 202 204 203 202 196 193 185 186 183 173 164 157 150 144 139 136 129 124 121 113 104 99 93 88 86 85 82 83 82 68 62 64 67 69 69 68 66
209 207 202 203 202 204 208 209 209 206 203 200 192 189 186 180 170 159 153 149 144 137 130 124 119 114 111 106 99 92 86 82 87 85 82 79 72 64 63 66 67 67 65
209 207 204 200 204 206 207 206 206 208 206 207 198 189 187 182 173 161 156 152 146 142 140 136 133 126 120 115 108 99 93 88 83 84 82 81 76 72 65 62 61 62 63
210 207 205 203 206 205 204 203 204 204 207 207 200 193 187 181 173 164 159 153 150 147 145 141 138 136 129 121 111 102 94 89 88 88 86 81 77 77 76 68 60 55 57
210 209 206 203 204 198 193 193 196 201 205 206 203 198 187 178 171 162 155 156 154 150 149 148 141 135 130 127 116 99 89 93 94 93 94 89 82 80 77 73 66 58 53
207 206 206 203 199 192 188 188 193 201 198 201 202 198 191 180 171 164 156 159 162 160 157 152 142 139 136 136 124 112 97 93 98 101 105 105 97 87 81 73 66 63 56
207 206 206 205 199 196 196 190 191 184 188 193 189 196 193 184 175 169 165 165 167 159 155 155 151 146 153 169 153 145 144 151 140 121 129 125 119 109 91 79 73 64 59
211 208 205 204 200 198 193 182 158 156 159 178 194 194 192 187 181 175 172 168 169 165 166 166 169 162 167 182 195 173 166 169 153 161 161 157 148 137 121 103 85 70 61
215 210 209 205 202 198 191 190 188 193 197 198 190 182 176 183 184 178 175 172 172 173 172 174 179 175 169 172 183 213 198 144 158 157 174 176 172 168 155 139 116 88 64
214 208 207 205 203 200 198 199 200 205 205 190 176 173 174 179 184 180 181 176 177 177 177 177 179 180 180 180 173 162 152 153 163 157 165 173 182 184 177 168 157 131 86
208 203 202 204 205 202 202 204 205 205 197 185 183 179 178 176 179 184 185 182 181 179 180 181 182 184 185 185 180 173 164 167 176 170 157 166 175 173 182 188 189 180 162